FW3934 Weather Reports


time (UTC)temp
C
wind
direction
speed
KPH
gust
KPH
rain 1hr
cm
rain 24hr
cm
rain mn
cm
humidity
%
barometer
mb
20260503231630 14 187 3.2 8.0 0.00 0.00 0.00 69 1012.4
20260503231132 14 221 3.2 11.3 0.00 0.00 0.00 69 1012.5
20260503230616 15 207 3.2 11.3 0.00 0.00 0.00 66 1012.7
20260503230114 15 223 4.8 12.9 0.00 0.00 0.00 66 1012.9
20260503225606 15 171 3.2 12.9 0.00 0.00 0.00 64 1013.0
20260503225101 15 246 3.2 6.4 0.00 0.00 0.00 64 1012.9
20260503224557 15 205 3.2 9.7 0.00 0.00 0.00 62 1012.9
20260503224053 15 162 4.8 14.5 0.00 0.00 0.00 63 1012.7
20260503223540 15 186 4.8 14.5 0.00 0.00 0.00 61 1012.7
20260503223039 15 242 4.8 11.3 0.00 0.00 0.00 61 1012.6
20260503222536 15 192 4.8 16.1 0.00 0.00 0.00 62 1012.8
20260503222035 15 131 4.8 16.1 0.00 0.00 0.00 62 1012.8
20260503221535 15 248 4.8 14.5 0.00 0.00 0.00 61 1012.9
20260503221034 15 171 3.2 14.5 0.00 0.00 0.00 62 1012.6
20260503220525 15 136 3.2 6.4 0.00 0.00 0.00 63 1012.8
20260503220013 15 162 3.2 6.4 0.00 0.00 0.00 62 1013.2
20260503215516 15 159 3.2 9.7 0.00 0.00 0.00 61 1013.4
20260503215008 15 175 3.2 9.7 0.00 0.00 0.00 61 1013.5
20260503214502 15 13 3.2 16.1 0.00 0.00 0.00 61 1013.2
20260503213458 16 234 3.2 6.4 0.00 0.00 0.00 60 1013.6
20260503212452 16 183 3.2 6.4 0.00 0.00 0.00 60 1014.1
20260503211955 16 184 3.2 12.9 0.00 0.00 0.00 59 1014.2
20260503205948 17 228 3.2 11.3 0.00 0.00 0.00 53 1014.3
20260503205447 17 209 3.2 8.0 0.00 0.00 0.00 55 1014.2
20260503204943 17 165 3.2 14.5 0.00 0.00 0.00 56 1014.3
20260503204436 17 256 4.8 14.5 0.00 0.00 0.00 52 1014.6
20260503203923 17 165 4.8 14.5 0.00 0.00 0.00 51 1014.7
20260503203418 17 155 4.8 14.5 0.00 0.00 0.00 53 1014.9
20260503202915 17 240 4.8 16.1 0.00 0.00 0.00 51 1015.1
20260503202416 17 226 4.8 16.1 0.00 0.00 0.00 53 1015.3
20260503201913 17 211 6.4 14.5 0.00 0.00 0.00 51 1015.3
20260503201411 17 208 4.8 14.5 0.00 0.00 0.00 48 1015.6
20260503200909 17 223 3.2 12.9 0.00 0.00 0.00 53 1015.8
20260503200405 17 189 4.8 12.9 0.00 0.00 0.00 52 1015.9
20260503195906 17 194 4.8 12.9 0.00 0.00 0.00 56 1016.3
20260503195405 17 235 4.8 12.9 0.00 0.00 0.00 53 1016.7
20260503193902 17 101 4.8 14.5 0.00 0.00 0.00 49 1016.8
20260503193403 17 244 4.8 12.9 0.00 0.00 0.00 54 1016.9
20260503192901 17 187 4.8 16.1 0.00 0.00 0.00 57 1016.8
20260503192400 17 209 4.8 16.1 0.00 0.00 0.00 50 1016.9
20260503191859 17 221 4.8 12.9 0.00 0.00 0.00 53 1017.0
20260503191357 17 200 6.4 12.9 0.00 0.00 0.00 49 1017.0
20260503190350 18 223 4.8 12.9 0.00 0.00 0.00 53 1017.2
20260503185852 18 217 4.8 11.3 0.00 0.00 0.00 53 1017.0
20260503185353 18 200 6.4 16.1 0.00 0.00 0.00 48 1017.1
20260503184843 18 227 4.8 16.1 0.00 0.00 0.00 51 1017.2
20260503184338 18 223 4.8 14.5 0.00 0.00 0.00 54 1017.2
20260503183838 18 184 4.8 14.5 0.00 0.00 0.00 54 1017.2
20260503183336 17 86 4.8 16.1 0.00 0.00 0.00 54 1017.2
20260503182838 17 188 6.4 16.1 0.00 0.00 0.00 51 1017.4
20260503181833 17 175 6.4 12.9 0.00 0.00 0.00 54 1017.4
20260503181327 17 189 6.4 14.5 0.00 0.00 0.00 53 1017.7
20260503180825 17 188 6.4 14.5 0.00 0.00 0.00 53 1017.9
20260503180325 17 243 6.4 14.5 0.00 0.00 0.00 51 1017.9
20260503175826 17 237 4.8 11.3 0.00 0.00 0.00 54 1018.0
20260503175324 17 226 4.8 14.5 0.00 0.00 0.00 51 1018.3
20260503174829 17 242 6.4 20.9 0.00 0.00 0.00 51 1018.4
20260503174324 17 230 4.8 20.9 0.00 0.00 0.00 53 1018.5
20260503173821 17 188 3.2 12.9 0.00 0.00 0.00 55 1018.6
20260503173322 17 242 6.4 16.1 0.00 0.00 0.00 59 1018.7
20260503172822 17 226 6.4 16.1 0.00 0.00 0.00 55 1018.8
20260503172318 17 231 4.8 12.9 0.00 0.00 0.00 59 1018.8
20260503171822 16 76 4.8 12.9 0.00 0.00 0.00 58 1018.9
20260503170819 16 225 4.8 14.5 0.00 0.00 0.00 60 1019.0
20260503170314 16 246 6.4 16.1 0.00 0.00 0.00 59 1019.0
20260503150235 14 67 4.8 11.3 0.00 0.00 0.00 62 1020.5
20260503140208 11 208 4.8 11.3 0.00 0.00 0.00 63 1020.5
20260503130634 7 202 1.6 6.4 0.00 0.00 0.00 80 1020.1
20260503100214 0 304 0.0 0.0 0.00 0.00 0.00 91 1018.7
20260503081408 0 304 0.0 0.0 0.00 0.00 0.00 88 1018.8
20260503080903 0 304 0.0 0.0 0.00 0.00 0.00 88 1018.7
20260503080354 0 304 0.0 0.0 0.00 0.00 0.00 88 1018.8
20260503072754 1 304 0.0 0.0 0.00 0.00 0.00 88 1018.7
20260503072243 1 304 0.0 0.0 0.00 0.00 0.00 88 1018.9
20260503071734 1 304 0.0 0.0 0.00 0.00 0.00 88 1018.9
20260503071203 1 304 0.0 0.0 0.00 0.00 0.00 88 1018.9
20260503070705 1 304 0.0 0.0 0.00 0.00 0.00 88 1019.0
20260503070155 1 304 0.0 0.0 0.00 0.00 0.00 88 1019.0
20260503054825 1 304 0.0 0.0 0.00 0.00 0.00 86 1019.4
20260503054304 1 304 0.0 0.0 0.00 0.00 0.00 86 1019.4
20260503053800 2 304 0.0 0.0 0.00 0.00 0.00 86 1019.4
20260503053259 2 304 0.0 0.0 0.00 0.00 0.00 86 1019.4
20260503052710 2 304 0.0 0.0 0.00 0.00 0.00 86 1019.4
20260503052206 2 304 0.0 0.0 0.00 0.00 0.00 86 1019.2
20260503051655 2 304 0.0 0.0 0.00 0.00 0.00 86 1019.4
20260503051118 2 304 0.0 0.0 0.00 0.00 0.00 86 1019.4
20260503050558 2 304 0.0 0.0 0.00 0.00 0.00 86 1019.5
20260503045529 2 304 0.0 0.0 0.00 0.00 0.00 85 1019.6
20260503045006 2 304 0.0 0.0 0.00 0.00 0.00 85 1019.6
20260503044503 2 304 0.0 0.0 0.00 0.00 0.00 85 1019.7
20260503044000 2 304 0.0 0.0 0.00 0.00 0.00 84 1019.6
20260503043453 2 304 0.0 0.0 0.00 0.00 0.00 84 1019.6
20260503042940 2 304 0.0 0.0 0.00 0.00 0.00 84 1019.5
20260503042437 2 304 0.0 0.0 0.00 0.00 0.00 84 1019.6
20260503041925 2 304 0.0 0.0 0.00 0.00 0.00 83 1019.6
20260503041416 3 304 0.0 0.0 0.00 0.00 0.00 82 1019.7
20260503040859 3 304 0.0 0.0 0.00 0.00 0.00 82 1019.7
20260503040356 3 304 0.0 0.0 0.00 0.00 0.00 82 1019.8
20260503035854 3 304 0.0 0.0 0.00 0.00 0.00 81 1019.8
20260503035338 3 304 0.0 0.0 0.00 0.00 0.00 81 1019.8
20260503034820 3 304 0.0 0.0 0.00 0.00 0.00 81 1019.9
20260503034308 3 304 0.0 0.0 0.00 0.00 0.00 80 1019.8
20260503033809 3 304 0.0 0.0 0.00 0.00 0.00 80 1019.9
20260503033308 3 304 0.0 0.0 0.00 0.00 0.00 79 1019.9
20260503032808 3 304 0.0 0.0 0.00 0.00 0.00 78 1019.9
20260503032301 3 304 0.0 0.0 0.00 0.00 0.00 78 1019.8
20260503030709 4 304 0.0 0.0 0.00 0.00 0.00 78 1019.8
20260503030158 4 304 0.0 0.0 0.00 0.00 0.00 78 1020.0
20260503025644 5 304 0.0 0.0 0.00 0.00 0.00 77 1020.0
20260503025139 5 304 0.0 0.0 0.00 0.00 0.00 77 1019.9
20260503024609 5 304 0.0 0.0 0.00 0.00 0.00 76 1019.9
20260503024104 5 304 0.0 0.0 0.00 0.00 0.00 75 1019.9
20260503023554 5 304 0.0 0.0 0.00 0.00 0.00 74 1020.0
20260503023051 5 304 0.0 0.0 0.00 0.00 0.00 74 1020.0
20260503022527 5 304 0.0 0.0 0.00 0.00 0.00 73 1020.0
20260503021949 5 304 0.0 0.0 0.00 0.00 0.00 72 1020.0
20260503021442 5 304 0.0 0.0 0.00 0.00 0.00 71 1019.9
20260503020931 6 304 0.0 0.0 0.00 0.00 0.00 71 1019.9
20260503020357 6 304 0.0 0.0 0.00 0.00 0.00 71 1019.9
20260503015827 6 304 0.0 0.0 0.00 0.00 0.00 70 1020.0
20260503015326 6 304 0.0 0.0 0.00 0.00 0.00 68 1019.8
20260503013808 7 304 0.0 0.0 0.00 0.00 0.00 66 1019.8
20260503013310 7 304 0.0 0.0 0.00 0.00 0.00 65 1019.7
20260503012801 7 304 0.0 0.0 0.00 0.00 0.00 64 1019.7
20260503012252 7 304 0.0 0.0 0.00 0.00 0.00 63 1019.6
20260503011715 8 304 0.0 0.0 0.00 0.00 0.00 62 1019.6
20260503011215 8 304 0.0 0.0 0.00 0.00 0.00 63 1019.7
20260503010713 8 304 0.0 0.0 0.00 0.00 0.00 60 1019.6
20260503010202 8 304 0.0 0.0 0.00 0.00 0.00 58 1019.6
20260503005700 8 304 0.0 0.0 0.00 0.00 0.00 57 1019.5
20260503005153 8 304 0.0 0.0 0.00 0.00 0.00 55 1019.6
20260503004635 9 304 0.0 0.0 0.00 0.00 0.00 55 1019.6
20260503004128 9 304 0.0 0.0 0.00 0.00 0.00 55 1019.6
20260503003621 9 304 0.0 0.0 0.00 0.00 0.00 55 1019.7
20260503003108 10 304 0.0 0.0 0.00 0.00 0.00 55 1019.7
20260503002605 10 304 0.0 0.0 0.00 0.00 0.00 56 1019.7
20260503002055 10 304 0.0 4.8 0.00 0.00 0.00 55 1019.7
20260503001559 10 304 0.0 4.8 0.00 0.00 0.00 52 1019.6
20260503000530 11 304 0.0 0.0 0.00 0.00 0.00 53 1019.6
20260503000018 11 304 0.0 3.2 0.00 0.00 0.00 53 1019.6
20260502235515 11 304 1.6 4.8 0.00 0.00 0.00 50 1019.5
20260502235010 11 338 1.6 4.8 0.00 0.00 0.00 48 1019.6
20260502234505 11 296 1.6 4.8 0.00 0.00 0.00 46 1019.6
20260502234000 11 327 1.6 4.8 0.00 0.00 0.00 46 1019.6
20260502233458 11 339 1.6 8.0 0.00 0.00 0.00 48 1019.5
20260502233000 11 339 1.6 8.0 0.00 0.00 0.00 45 1019.5
20260502232459 11 323 1.6 4.8 0.00 0.00 0.00 47 1019.4
20260502231957 11 264 1.6 4.8 0.00 0.00 0.00 47 1019.6